Location: Baili�vre
(50.0696°N, 4.2409°E)
Time: 04:17:14
(UTC+00:00)

Cosmos 1536 - Pass Details

Date: 08 August 2020
Orbit: 541 x 558 km, 82.5° (Epoch: 19 September)

Event Time Altitude Azimuth Distance (km) Brightness Sun altitude
Exits shadow 22:33:54 52° 80° (E) 684 3.1 -22.1°
Drops below altitude 10° 22:37:33 10° 19° (NNE) 1,822 6.2 -22.3°
Sets 22:39:45 0° 14° (NNE) 2,718 7.3 -22.4°
